Change the Weather History Date:

Sunday, February 10, 2013

  Actual Average Record
Temperature  
Mean Temperature 34 °F -  
Max Temperature 46 °F 32 °F 60 °F (1966)
Min Temperature 23 °F 11 °F -18 °F (1982)
Degree Days  
Heating Degree Days 30    
Moisture  
Dew Point 28 °F    
Average Humidity 71    
Maximum Humidity 93    
Minimum Humidity 55    
Precipitation  
Precipitation 0.04 in - - ()
Sea Level Pressure  
Sea Level Pressure 29.98 in    
Wind  
Wind Speed 5 mph (SE)    
Max Wind Speed 16 mph    
Max Gust Speed 24 mph    
Visibility 10 miles    
Events Rain    
Averages and records for this station are not official NWS values.
T = Trace of Precipitation, MM = Missing Value Source: NWS Daily Summary

Daily Weather History Graph

Daily Weather History Graph

Search for Another Location

Airport or City:

Trip Planner

Search our weather history database for the weather conditions in past years. The results will help you decide how hot, cold, wet, or windy it might be!

Date:

Astronomy

Feb. 10, 2013 Rise Set
Actual Time 7:38 AM EST 6:05 PM EST
Civil Twilight 7:10 AM EST 6:34 PM EST
Nautical Twilight 6:37 AM EST 7:06 PM EST
Astronomical Twilight 6:05 AM EST 7:39 PM EST
Moon 7:27 AM EST (2/10) 6:56 PM EST (2/10)
Length of Visible Light 11h 24m
Length of Day
10h 27m
New Moon, 0% of the Moon is Illuminated
Feb 10
New Moon
Feb 17
First Quarter
Feb 25
Full
Mar 4
Last Quarter
Mar 11
New

Hourly Weather History & Observations

Time (EST) Temp. Windchill Dew Point Humidity Pressure Visibility Wind Dir Wind Speed Gust Speed Precip Events Conditions
12:53 AM 25.0 °F 18.1 °F 19.0 °F 78% 30.26 in 10.0 mi ESE 5.8 mph - N/A   Clear
1:53 AM 23.0 °F - 18.0 °F 81% 30.24 in 10.0 mi Calm Calm - N/A   Clear
2:53 AM 24.1 °F 19.7 °F 19.0 °F 81% 30.21 in 10.0 mi East 3.5 mph - N/A   Clear
3:53 AM 24.1 °F - 19.0 °F 81% 30.20 in 10.0 mi Calm Calm - N/A   Clear
4:53 AM 24.1 °F - 19.0 °F 81% 30.21 in 10.0 mi Calm Calm - N/A   Clear
5:53 AM 24.1 °F - 19.0 °F 81% 30.20 in 10.0 mi Calm Calm - N/A   Clear
6:53 AM 27.0 °F 18.7 °F 21.0 °F 78% 30.15 in 10.0 mi East 8.1 mph - N/A   Overcast
7:53 AM 28.9 °F 23.9 °F 21.9 °F 75% 30.17 in 10.0 mi SE 4.6 mph - N/A   Overcast
8:53 AM 30.9 °F 26.2 °F 24.1 °F 76% 30.13 in 10.0 mi East 4.6 mph - N/A   Overcast
9:53 AM 35.1 °F 30.1 °F 24.1 °F 64% 30.12 in 10.0 mi ESE 5.8 mph - N/A   Overcast
10:53 AM 37.0 °F 34.5 °F 24.1 °F 59% 30.11 in 10.0 mi SE 3.5 mph - N/A   Overcast
11:53 AM 39.9 °F 34.5 °F 25.0 °F 55% 30.06 in 10.0 mi SE 8.1 mph - N/A   Overcast
12:53 PM 43.0 °F 38.8 °F 28.0 °F 56% 30.01 in 10.0 mi SE 6.9 mph - N/A   Overcast
1:07 PM 42.8 °F 38.6 °F 28.4 °F 57% 29.98 in 10.0 mi SE 6.9 mph - N/A   Overcast
1:14 PM 42.8 °F 37.5 °F 28.4 °F 57% 29.98 in 10.0 mi SE 9.2 mph - N/A   Overcast
1:53 PM 43.0 °F 40.3 °F 28.9 °F 58% 29.98 in 10.0 mi SSE 4.6 mph - N/A   Overcast
2:53 PM 43.0 °F 40.3 °F 30.0 °F 60% 29.94 in 10.0 mi ESE 4.6 mph - N/A   Overcast
3:53 PM 42.1 °F 37.7 °F 30.9 °F 65% 29.92 in 10.0 mi ESE 6.9 mph - N/A   Overcast
4:53 PM 41.0 °F 36.4 °F 32.0 °F 70% 29.87 in 9.0 mi ESE 6.9 mph - 0.00 in Rain Light Rain
5:53 PM 39.0 °F 35.7 °F 33.1 °F 79% 29.84 in 10.0 mi ESE 4.6 mph - 0.02 in Rain Light Rain
6:53 PM 41.0 °F 35.8 °F 32.0 °F 70% 29.80 in 10.0 mi SE 8.1 mph - 0.00 in   Overcast
7:53 PM 43.0 °F 36.8 °F 30.0 °F 60% 29.77 in 10.0 mi SSE 11.5 mph 18.4 mph N/A   Overcast
8:21 PM 44.6 °F 39.2 °F 30.2 °F 57% 29.75 in 10.0 mi SSE 10.4 mph 18.4 mph N/A   Overcast
8:53 PM 45.0 °F 38.5 °F 30.9 °F 58% 29.76 in 10.0 mi South 13.8 mph 20.7 mph N/A   Overcast
9:53 PM 45.0 °F 39.3 °F 39.0 °F 80% 29.74 in 10.0 mi South 11.5 mph 18.4 mph 0.01 in Rain Light Rain
10:53 PM 46.0 °F 40.6 °F 42.1 °F 86% 29.73 in 10.0 mi South 11.5 mph 20.7 mph 0.01 in   Overcast
11:42 PM 44.6 °F 37.4 °F 42.8 °F 93% 29.69 in 7.0 mi South 16.1 mph 24.2 mph 0.00 in   Overcast
11:53 PM 45.0 °F 37.9 °F 43.0 °F 93% 29.70 in 8.0 mi South 16.1 mph 24.2 mph 0.00 in   Overcast